This is the latest recevied weather packets stored in our database for station/object OK1VOF-13. If no packets are shown the sender has not sent any weather packets the latest 10 day(s).
| Time | Temp. | Humidity | Pressure | Rain* | Wind** | Luminosity | Snow |
|---|---|---|---|---|---|---|---|
| 1788516113 | 22.78° C | 63% | 1018.3 hPa | 0 mm | - | - | - |
| 1788515814 | 22.78° C | 63% | 1018.4 hPa | 0 mm | - | - | - |
| 1788514924 | 22.22° C | 64% | 1018.7 hPa | 0 mm | - | - | - |
| 1788514619 | 22.22° C | 64% | 1018.6 hPa | 0 mm | - | - | - |
| 1788513125 | 21.11° C | 63% | 1019.1 hPa | 0 mm | - | - | - |
| 1788512826 | 21.11° C | 63% | 1019.2 hPa | 0 mm | - | - | - |
| 1788511929 | 21.11° C | 63% | 1019.4 hPa | 0 mm | - | - | - |
| 1788511040 | 21.11° C | 63% | 1019.7 hPa | 0 mm | - | - | - |
| 1788510741 | 21.11° C | 63% | 1019.8 hPa | 0 mm | - | - | - |
| 1788509240 | 21.11° C | 64% | 1019.8 hPa | 0 mm | - | - | - |
| 1788508649 | 21.11° C | 64% | 1019.5 hPa | 0 mm | - | - | - |
| 1788508051 | 20.56° C | 64% | 1019.5 hPa | 0 mm | - | - | - |
| 1788507447 | 20° C | 64% | 1019.4 hPa | 0 mm | - | - | - |
| 1788506850 | 20° C | 64% | 1019.6 hPa | 0 mm | - | - | - |
| 1788505953 | 19.44° C | 64% | 1019.7 hPa | 0 mm | - | - | - |
| 1788505054 | 19.44° C | 64% | 1019.9 hPa | 36.83 mm | - | - | - |
| 1788504443 | 19.44° C | 64% | 1019.7 hPa | 36.83 mm | - | - | - |
| 1788503839 | 18.89° C | 64% | 1019.5 hPa | 36.83 mm | - | - | - |
| 1788501978 | 18.33° C | 64% | 1019.9 hPa | 43.18 mm | - | - | - |
| 1788501683 | 18.33° C | 64% | 1019.8 hPa | 43.18 mm | - | - | - |
| 1788501383 | 18.33° C | 64% | 1019.7 hPa | 0 mm | - | - | - |
| 1788500792 | 17.78° C | 64% | 1019.8 hPa | 0 mm | - | - | - |
| 1788500195 | 17.78° C | 63% | 1019.8 hPa | 0 mm | - | - | - |
| 1788498097 | 17.78° C | 63% | 1019.5 hPa | 0 mm | - | - | - |
| 1788497798 | 17.78° C | 63% | 1019.6 hPa | 0 mm | - | - | - |
* Rain latest hour (hover to see other rain measurements)
** Current wind speed in m/s (hover to see current wind gust speed)